FW5161 Weather Reports


Display with metric or nautical units.
time (UTC)temp
F
wind
direction
speed
MPH
gust
MPH
rain 1hr
in
rain 24hr
in
rain mn
in
humidity
%
barometer
mb
20260507101620 54 182 6.0 15.0 0.00 0.00 0.00 75 1019.1
20260507101121 54 228 6.0 15.0 0.00 0.00 0.00 76 1019.2
20260507100624 54 174 6.0 15.0 0.00 0.00 0.00 76 1019.1
20260507100119 54 209 7.0 16.0 0.00 0.00 0.00 76 1019.1
20260507095620 54 124 8.0 19.0 0.00 0.00 0.00 75 1019.0
20260507095120 54 152 8.0 19.0 0.00 0.00 0.00 76 1019.2
20260507094620 54 119 8.0 18.0 0.00 0.00 0.00 78 1019.1
20260507094115 54 185 8.0 18.0 0.00 0.00 0.00 78 1019.1
20260507093852 54 151 7.0 16.0 0.00 0.00 0.00 78 1019.1
20260507093123 54 202 8.0 15.0 0.00 0.00 0.00 78 1019.1
20260507092620 54 134 9.0 17.0 0.00 0.00 0.00 78 1019.1
20260507092118 54 158 8.0 17.0 0.00 0.00 0.00 79 1019.2
20260507091615 54 174 8.0 16.0 0.00 0.00 0.00 78 1019.1
20260507091116 54 211 8.0 16.0 0.00 0.00 0.00 79 1019.0
20260507090616 54 96 6.0 14.0 0.00 0.00 0.00 79 1019.1
20260507090116 54 128 6.0 14.0 0.00 0.00 0.00 79 1019.1
20260507085612 55 234 7.0 14.0 0.00 0.00 0.00 79 1019.0
20260507085112 55 124 7.0 17.0 0.00 0.00 0.00 79 1019.0
20260507084611 55 99 6.0 17.0 0.00 0.00 0.00 79 1019.0
20260507084111 55 162 5.0 13.0 0.00 0.00 0.00 79 1019.0
20260507083613 55 144 6.0 15.0 0.00 0.00 0.00 79 1018.9
20260507083112 55 124 6.0 15.0 0.00 0.00 0.00 79 1019.0
20260507082612 55 184 6.0 15.0 0.00 0.00 0.00 79 1019.0
20260507082113 55 170 7.0 14.0 0.00 0.00 0.00 79 1019.0
20260507081611 55 116 8.0 16.0 0.00 0.00 0.00 79 1019.0
20260507081111 55 184 8.0 16.0 0.00 0.00 0.00 79 1019.1
20260507080341 55 135 6.0 13.0 0.00 0.00 0.00 78 1019.0
20260507075609 55 154 7.0 13.0 0.00 0.00 0.00 78 1018.9
20260507075110 55 180 6.0 13.0 0.00 0.00 0.00 78 1018.9
20260507074610 55 176 7.0 13.0 0.00 0.00 0.00 78 1018.9
20260507074110 55 138 7.0 15.0 0.00 0.00 0.00 78 1018.8
20260507073607 55 224 6.0 15.0 0.00 0.00 0.00 78 1018.8
20260507073106 55 125 5.0 12.0 0.00 0.00 0.00 79 1018.8
20260507072606 55 173 4.0 11.0 0.00 0.00 0.00 79 1018.8
20260507072324 55 139 4.0 11.0 0.00 0.00 0.00 80 1018.8
20260507071604 55 174 5.0 11.0 0.00 0.00 0.00 80 1018.7
20260507071330 55 155 6.0 14.0 0.00 0.00 0.00 80 1018.7
20260507070605 55 150 6.0 14.0 0.00 0.00 0.00 80 1018.6
20260507070101 55 170 4.0 12.0 0.00 0.00 0.00 81 1018.6
20260507065601 55 139 4.0 9.0 0.00 0.00 0.00 81 1018.5
20260507065101 55 141 3.0 7.0 0.00 0.00 0.00 82 1018.5
20260507064601 55 143 2.0 7.0 0.00 0.00 0.00 82 1018.4
20260507064102 55 156 2.0 5.0 0.00 0.00 0.00 82 1018.3
20260507063600 55 156 1.0 4.0 0.00 0.00 0.00 83 1018.3
20260507063101 55 157 2.0 8.0 0.00 0.00 0.00 84 1018.3
20260507062601 55 157 2.0 8.0 0.00 0.00 0.00 84 1018.2
20260507062101 55 170 2.0 6.0 0.00 0.00 0.00 85 1018.2
20260507061831 54 149 2.0 6.0 0.00 0.00 0.00 84 1018.1
20260507061100 55 141 1.0 4.0 0.00 0.00 0.00 84 1018.1
20260507060606 55 180 1.0 3.0 0.00 0.00 0.00 84 1018.1
20260507055600 55 165 1.0 7.0 0.00 0.00 0.00 84 1018.1
20260507055334 55 163 2.0 8.0 0.00 0.00 0.00 84 1018.2
20260507054601 55 209 2.0 10.0 0.00 0.00 0.00 84 1018.1
20260507054330 55 195 2.0 10.0 0.00 0.00 0.00 84 1018.2
20260507053604 54 136 1.0 9.0 0.00 0.00 0.00 85 1018.1
20260507053101 54 163 1.0 9.0 0.00 0.00 0.00 85 1018.0
20260507052601 54 209 0.0 0.0 0.00 0.00 0.00 85 1018.0
20260507052101 54 154 0.0 0.0 0.00 0.00 0.00 85 1018.2
20260507051602 54 162 0.0 0.0 0.00 0.00 0.00 85 1018.2
20260507051102 54 131 0.0 0.0 0.00 0.00 0.00 85 1018.2
20260507050601 54 131 0.0 2.0 0.00 0.00 0.00 85 1018.3
20260507045600 54 131 1.0 2.0 0.00 0.00 0.00 85 1018.3
20260507045338 54 131 0.0 2.0 0.00 0.00 0.00 85 1018.2
20260507044836 54 131 0.0 0.0 0.00 0.00 0.00 84 1018.3
20260507044101 54 131 1.0 3.0 0.00 0.00 0.00 84 1018.3
20260507043600 54 131 1.0 3.0 0.00 0.00 0.00 84 1018.3
20260507043058 54 131 1.0 3.0 0.00 0.00 0.00 84 1018.4
20260507042552 55 131 1.0 3.0 0.00 0.00 0.00 84 1018.4
20260507042046 55 131 1.0 5.0 0.00 0.00 0.00 83 1018.3
20260507041540 55 116 1.0 5.0 0.00 0.00 0.00 83 1018.2
20260507041034 55 103 2.0 5.0 0.00 0.00 0.00 83 1018.2
20260507040537 55 103 3.0 6.0 0.00 0.00 0.00 82 1018.1
20260507040033 55 87 2.0 6.0 0.00 0.00 0.00 82 1018.0
20260507035800 56 89 1.0 4.0 0.00 0.00 0.00 81 1018.1
20260507035029 56 154 1.0 5.0 0.00 0.00 0.00 80 1018.0
20260507034529 56 154 1.0 5.0 0.00 0.00 0.00 80 1017.9
20260507034255 56 232 1.0 3.0 0.00 0.00 0.00 79 1018.0
20260507033529 56 301 2.0 6.0 0.00 0.00 0.00 79 1018.0
20260507033029 56 268 2.0 6.0 0.00 0.00 0.00 79 1017.9
20260507032530 56 128 2.0 10.0 0.00 0.00 0.00 79 1017.8
20260507032029 56 105 2.0 10.0 0.00 0.00 0.00 79 1017.9
20260507031529 56 156 3.0 7.0 0.00 0.00 0.00 79 1017.8
20260507031303 56 158 3.0 9.0 0.00 0.00 0.00 79 1017.9
20260507030529 56 103 4.0 11.0 0.00 0.00 0.00 79 1017.9
20260507030029 56 159 7.0 15.0 0.00 0.00 0.00 79 1017.8
20260507025530 56 132 8.0 15.0 0.00 0.00 0.00 78 1017.9
20260507025029 56 128 8.0 14.0 0.00 0.00 0.00 78 1017.9
20260507024535 56 120 8.0 12.0 0.00 0.00 0.00 78 1017.8
20260507024035 56 139 7.0 12.0 0.00 0.00 0.00 78 1017.8
20260507023524 56 125 6.0 12.0 0.00 0.00 0.00 78 1017.9
20260507023019 56 119 8.0 15.0 0.00 0.00 0.00 78 1017.8
20260507022753 56 132 8.0 15.0 0.00 0.00 0.00 79 1017.8
20260507021504 56 128 8.0 18.0 0.00 0.00 0.00 79 1018.0
20260507021009 56 153 9.0 18.0 0.00 0.00 0.00 79 1018.0
20260507020506 56 134 9.0 18.0 0.00 0.00 0.00 79 1018.0
20260507020005 56 143 8.0 18.0 0.00 0.00 0.00 79 1018.0
20260507015502 56 137 7.0 17.0 0.00 0.00 0.00 79 1017.9
20260507015002 56 117 7.0 15.0 0.00 0.00 0.00 79 1018.0
20260507014502 56 99 6.0 14.0 0.00 0.00 0.00 79 1018.0
20260507014001 57 116 5.0 13.0 0.00 0.00 0.00 79 1017.9
20260507013739 57 113 5.0 15.0 0.00 0.00 0.00 79 1017.9
20260507013003 57 142 5.0 15.0 0.00 0.00 0.00 79 1017.9
20260507012502 57 224 6.0 12.0 0.00 0.00 0.00 79 1017.9
20260507012003 57 125 6.0 12.0 0.00 0.00 0.00 79 1017.9
20260507011503 57 93 6.0 12.0 0.00 0.00 0.00 79 1017.9
20260507011001 56 109 7.0 11.0 0.00 0.00 0.00 79 1017.8
20260507010503 56 136 6.0 14.0 0.00 0.00 0.00 79 1017.9
20260507010002 56 150 5.0 14.0 0.00 0.00 0.00 79 1017.9
20260507005501 56 103 4.0 12.0 0.00 0.00 0.00 79 1018.0
20260507004958 56 138 4.0 12.0 0.00 0.00 0.00 79 1018.0
20260507004458 57 124 4.0 8.0 0.00 0.00 0.00 78 1018.0
20260507003958 57 164 5.0 12.0 0.00 0.00 0.00 78 1018.0
20260507003459 56 122 6.0 12.0 0.00 0.00 0.00 78 1018.0
20260507002958 56 130 8.0 16.0 0.00 0.00 0.00 79 1018.0
20260507002457 56 187 9.0 17.0 0.00 0.00 0.00 78 1018.0
20260507001958 56 147 9.0 17.0 0.00 0.00 0.00 78 1018.0
20260507001458 56 172 8.0 19.0 0.00 0.00 0.00 78 1018.0
20260507000957 56 149 8.0 19.0 0.00 0.00 0.00 78 1017.9
20260507000458 56 130 8.0 17.0 0.00 0.00 0.00 78 1018.0
20260506235954 56 144 9.0 18.0 0.00 0.00 0.00 78 1017.9
20260506235455 56 125 11.0 20.0 0.00 0.00 0.00 78 1017.9
20260506234954 56 145 11.0 20.0 0.00 0.00 0.00 78 1018.0
20260506234454 56 128 11.0 19.0 0.00 0.00 0.00 78 1017.9
20260506233953 56 117 10.0 19.0 0.00 0.00 0.00 78 1017.8
20260506233457 56 170 11.0 21.0 0.00 0.00 0.00 78 1017.9
20260506232957 56 87 11.0 21.0 0.00 0.00 0.00 78 1017.8
20260506232459 56 180 11.0 21.0 0.00 0.00 0.00 78 1017.9
20260506231957 56 103 10.0 24.0 0.00 0.00 0.00 78 1018.0
20260506231448 56 118 11.0 24.0 0.00 0.00 0.00 78 1018.0
20260506230948 56 74 11.0 24.0 0.00 0.00 0.00 78 1018.0
20260506230723 56 159 11.0 24.0 0.00 0.00 0.00 78 1017.9
20260506230218 56 122 11.0 20.0 0.00 0.00 0.00 79 1018.1
20260506225448 56 191 11.0 23.0 0.00 0.00 0.00 78 1018.2
20260506224947 56 185 10.0 23.0 0.00 0.00 0.00 78 1017.9
20260506224448 56 123 11.0 23.0 0.00 0.00 0.00 78 1017.9
20260506223948 56 157 12.0 25.0 0.00 0.00 0.00 78 1018.0
20260506223446 56 136 12.0 25.0 0.00 0.00 0.00 78 1018.1
20260506222946 56 130 12.0 25.0 0.00 0.00 0.00 77 1018.1
20260506222446 56 168 12.0 25.0 0.00 0.00 0.00 77 1018.3
20260506221945 56 103 10.0 20.0 0.00 0.00 0.00 76 1018.2
20260506221445 57 182 9.0 20.0 0.00 0.00 0.00 76 1018.3
20260506220940 57 162 9.0 19.0 0.00 0.00 0.00 76 1018.2
20260506220434 57 149 9.0 21.0 0.00 0.00 0.00 75 1018.2
20260506215931 57 267 10.0 21.0 0.00 0.00 0.00 75 1018.2
20260506215431 57 124 9.0 17.0 0.00 0.00 0.00 75 1018.3
20260506215157 57 86 8.0 18.0 0.00 0.00 0.00 74 1018.2
20260506214707 57 109 9.0 18.0 0.00 0.00 0.00 74 1018.2
20260506214201 57 192 10.0 17.0 0.00 0.00 0.00 74 1018.1
20260506213429 57 117 9.0 18.0 0.00 0.00 0.00 74 1018.2
20260506212930 57 159 9.0 18.0 0.00 0.00 0.00 75 1018.4
20260506212429 57 143 9.0 17.0 0.00 0.00 0.00 74 1018.3
20260506211935 57 115 9.0 19.0 0.00 0.00 0.00 75 1018.3
20260506211433 57 126 9.0 19.0 0.00 0.00 0.00 75 1018.3
20260506210933 57 103 8.0 19.0 0.00 0.00 0.00 75 1018.4
20260506210434 57 155 8.0 17.0 0.00 0.00 0.00 75 1018.5
20260506205931 57 135 8.0 20.0 0.00 0.00 0.00 75 1018.4
20260506205429 57 157 8.0 20.0 0.00 0.00 0.00 74 1018.4
20260506204930 58 200 7.0 17.0 0.00 0.00 0.00 74 1018.3
20260506204658 57 147 5.0 15.0 0.00 0.00 0.00 74 1018.3
20260506203935 58 172 5.0 15.0 0.00 0.00 0.00 74 1018.3
20260506203649 58 224 6.0 13.0 0.00 0.00 0.00 74 1018.4
20260506202922 58 153 6.0 14.0 0.00 0.00 0.00 73 1018.5
20260506202415 59 224 7.0 16.0 0.00 0.00 0.00 73 1018.5
20260506201911 58 234 7.0 16.0 0.00 0.00 0.00 72 1018.3
20260506201411 60 188 4.0 12.0 0.00 0.00 0.00 71 1018.3
20260506201139 60 299 5.0 12.0 0.00 0.00 0.00 73 1018.2
20260506200410 58 275 6.0 14.0 0.00 0.00 0.00 74 1018.3
20260506195907 59 269 4.0 14.0 0.00 0.00 0.00 73 1018.3
20260506195407 59 295 5.0 15.0 0.00 0.00 0.00 73 1018.3
20260506194907 58 143 5.0 15.0 0.00 0.00 0.00 74 1018.2
20260506194407 59 295 4.0 13.0 0.00 0.00 0.00 73 1018.3
20260506193908 59 323 5.0 15.0 0.00 0.00 0.00 73 1018.2
20260506193632 58 295 5.0 15.0 0.00 0.00 0.00 74 1018.4
20260506192908 58 193 4.0 12.0 0.00 0.00 0.00 73 1018.3
20260506192633 59 318 3.0 11.0 0.00 0.00 0.00 73 1018.3
20260506191905 58 343 4.0 11.0 0.00 0.00 0.00 74 1018.3
20260506191405 59 314 4.0 11.0 0.00 0.00 0.00 72 1018.1
20260506190909 59 312 3.0 9.0 0.00 0.00 0.00 72 1018.1
20260506190406 59 9 4.0 15.0 0.00 0.00 0.00 78 1018.0
20260506185907 57 264 6.0 15.0 0.00 0.00 0.00 77 1018.1
20260506185406 58 307 4.0 15.0 0.00 0.00 0.00 75 1018.0
20260506184859 58 318 3.0 9.0 0.00 0.00 0.00 78 1018.0
20260506183846 57 303 3.0 9.0 0.00 0.00 0.00 75 1018.0
20260506183344 57 305 2.0 9.0 0.00 0.00 0.00 76 1018.0
20260506182845 57 285 1.0 5.0 0.00 0.00 0.00 76 1018.0
20260506182346 57 339 2.0 8.0 0.00 0.00 0.00 78 1018.1
20260506181844 56 295 3.0 8.0 0.00 0.00 0.00 78 1018.2
20260506181610 56 343 3.0 7.0 0.00 0.00 0.00 79 1018.1
20260506180845 55 319 3.0 8.0 0.00 0.00 0.00 79 1018.0
20260506180606 56 271 3.0 8.0 0.00 0.00 0.00 79 1018.0
20260506180110 55 330 3.0 7.0 0.00 0.00 0.00 79 1017.9
20260506175609 56 320 2.0 6.0 0.00 0.00 0.00 80 1017.9
20260506174845 55 274 3.0 8.0 0.00 0.00 0.00 80 1018.0
20260506174345 55 345 3.0 8.0 0.00 0.00 0.00 79 1018.0
20260506173845 55 326 4.0 10.0 0.00 0.00 0.00 81 1018.0
20260506173343 55 316 4.0 10.0 0.00 0.00 0.00 80 1018.0
20260506172843 54 295 4.0 9.0 0.00 0.00 0.00 80 1017.9
20260506172341 55 280 4.0 10.0 0.00 0.00 0.00 80 1017.9
20260506172101 55 305 3.0 10.0 0.00 0.00 0.00 79 1017.8
20260506171333 55 128 3.0 9.0 0.00 0.00 0.00 80 1017.7
20260506170834 55 85 3.0 8.0 0.00 0.00 0.00 78 1017.7
20260506170333 55 305 4.0 12.0 0.00 0.00 0.00 79 1017.6
20260506170103 55 193 4.0 12.0 0.00 0.00 0.00 80 1017.5
20260506165331 55 328 3.0 8.0 0.00 0.00 0.00 80 1017.4
20260506164331 55 295 3.0 7.0 0.00 0.00 0.00 80 1017.3
20260506164057 56 295 3.0 5.0 0.00 0.00 0.00 81 1017.5
20260506163331 54 345 4.0 9.0 0.00 0.00 0.00 81 1017.5
20260506162831 54 305 3.0 9.0 0.00 0.00 0.00 81 1017.5
20260506162328 54 231 3.0 10.0 0.00 0.00 0.00 81 1017.4
20260506161828 54 299 3.0 10.0 0.00 0.00 0.00 81 1017.5
20260506161330 54 214 4.0 10.0 0.00 0.00 0.00 80 1017.4
20260506160829 54 257 3.0 10.0 0.00 0.00 0.00 81 1017.4
20260506160330 54 295 3.0 11.0 0.00 0.00 0.00 81 1017.4
20260506155828 54 242 3.0 11.0 0.00 0.00 0.00 80 1017.4
20260506155329 54 359 3.0 6.0 0.00 0.00 0.00 81 1017.5
20260506154829 54 202 4.0 13.0 0.00 0.00 0.00 81 1017.6
20260506154329 53 215 5.0 16.0 0.00 0.00 0.00 81 1017.6
20260506153829 53 280 5.0 16.0 0.00 0.00 0.00 82 1017.6
20260506153329 53 314 5.0 11.0 0.00 0.00 0.00 82 1017.5
20260506152828 53 351 5.0 11.0 0.00 0.00 0.00 82 1017.5
20260506152329 52 186 5.0 13.0 0.00 0.00 0.00 83 1017.5
20260506152100 52 72 6.0 21.0 0.00 0.00 0.00 83 1017.5
20260506151559 52 147 7.0 24.0 0.00 0.00 0.00 83 1017.5
20260506151100 52 133 8.0 24.0 0.00 0.00 0.00 83 1017.3
20260506150329 51 223 8.0 18.0 0.00 0.00 0.00 84 1017.2
20260506150100 51 143 7.0 25.0 0.00 0.00 0.00 84 1017.2
20260506144830 51 135 8.0 17.0 0.00 0.00 0.00 84 1016.9
20260506144329 51 177 7.0 17.0 0.00 0.00 0.00 85 1016.7
20260506143829 51 207 8.0 17.0 0.00 0.00 0.00 85 1016.7
20260506143329 51 143 7.0 21.0 0.00 0.00 0.00 85 1016.9
20260506142831 51 164 8.0 21.0 0.00 0.00 0.00 85 1016.7
20260506142325 51 176 10.0 25.0 0.00 0.00 0.00 85 1016.3
20260506141819 51 121 10.0 25.0 0.00 0.00 0.00 85 1016.5
20260506141312 51 104 11.0 25.0 0.00 0.00 0.00 84 1016.3
20260506140806 51 129 11.0 29.0 0.00 0.00 0.00 84 1016.1
20260506140302 51 194 12.0 29.0 0.00 0.00 0.00 84 1016.2
20260506135801 51 181 13.0 33.0 0.00 0.00 0.00 84 1016.2
20260506135301 51 176 12.0 33.0 0.00 0.00 0.00 84 1016.1
20260506134801 51 162 12.0 24.0 0.00 0.00 0.00 84 1016.2
20260506134301 51 220 14.0 26.0 0.00 0.00 0.00 84 1016.2
20260506133801 51 174 15.0 32.0 0.00 0.00 0.00 84 1016.2
20260506133301 51 95 17.0 32.0 0.00 0.00 0.00 84 1015.8
20260506132802 51 130 16.0 31.0 0.00 0.00 0.00 83 1016.0
20260506132301 51 149 16.0 34.0 0.00 0.00 0.00 83 1015.7
20260506131801 51 145 16.0 34.0 0.00 0.00 0.00 82 1015.6
20260506131302 51 119 17.0 32.0 0.00 0.00 0.00 84 1015.7
20260506130801 51 156 17.0 30.0 0.00 0.00 0.00 85 1015.6
20260506130534 52 94 17.0 36.0 0.00 0.00 0.00 84 1015.5
20260506125802 52 135 17.0 36.0 0.00 0.00 0.00 83 1015.2
20260506125301 52 102 17.0 31.0 0.00 0.00 0.00 83 1015.3
20260506124801 52 164 17.0 29.0 0.00 0.00 0.00 81 1015.3
20260506124538 52 176 17.0 32.0 0.00 0.00 0.00 80 1015.7
20260506123801 52 144 17.0 32.0 0.00 0.00 0.00 80 1015.7
20260506123256 52 172 17.0 31.0 0.00 0.00 0.00 81 1015.7
20260506122748 52 169 17.0 31.0 0.00 0.00 0.00 81 1015.4
20260506122244 52 98 17.0 32.0 0.00 0.00 0.00 81 1015.4
20260506121737 51 157 15.0 30.0 0.00 0.00 0.00 82 1015.5
20260506121233 51 161 15.0 30.0 0.00 0.00 0.00 82 1015.5
20260506120735 52 123 14.0 30.0 0.00 0.00 0.00 81 1015.5
20260506120232 52 142 13.0 28.0 0.00 0.00 0.00 80 1015.6
20260506115731 52 97 13.0 26.0 0.00 0.00 0.00 80 1015.5
20260506115230 52 102 12.0 30.0 0.00 0.00 0.00 79 1015.5
20260506114730 53 129 13.0 30.0 0.00 0.00 0.00 79 1015.4
20260506114230 53 144 15.0 30.0 0.00 0.00 0.00 79 1015.2
20260506113730 53 176 16.0 30.0 0.00 0.00 0.00 79 1015.1
20260506113230 53 155 15.0 30.0 0.00 0.00 0.00 78 1014.9
20260506112729 53 154 16.0 29.0 0.00 0.00 0.00 78 1014.8
20260506112230 53 149 16.0 36.0 0.00 0.00 0.00 78 1014.8
20260506111729 53 163 16.0 36.0 0.00 0.00 0.00 78 1014.8
20260506111502 53 76 16.0 30.0 0.00 0.00 0.00 79 1014.9
20260506110730 53 182 15.0 31.0 0.00 0.00 0.00 79 1014.9
20260506105730 53 210 14.0 28.0 0.00 0.00 0.00 79 1014.8
20260506105229 53 133 15.0 29.0 0.00 0.00 0.00 79 1014.9
20260506104724 53 132 17.0 33.0 0.00 0.00 0.00 79 1014.7
20260506104219 53 132 18.0 38.0 0.00 0.00 0.00 80 1014.7
20260506103712 53 127 19.0 38.0 0.00 0.00 0.00 80 1014.5
20260506103212 53 154 18.0 33.0 0.00 0.00 0.00 80 1014.5
20260506102944 53 153 19.0 32.0 0.00 0.00 0.00 80 1014.5
20260506102212 53 120 19.0 34.0 0.00 0.00 0.00 80 1014.4
20260506101712 53 158 20.0 41.0 0.00 0.00 0.00 80 1014.4